Wetterdaten: Freitag, 24.10.2014
Datum Zeit Temp. A. Feuchte A. Luftdruck Regen Wind Richtung Richtung Sonnenschein ET UV Solar Taupunkt Windchill Windben Empfang
24.10.2014 00:00 7,0 C 82 % 1021,3 hPa 0,0 l/m 0,7 km/h (0 Bft) N 352 0 min 0,000 mm 0,0 UV-I 0 W/m 4,1 C 7,0 C 4,0 km/h (1 Bft) 0,00 %
24.10.2014 00:15 7,0 C 82 % 1021,0 hPa 0,0 l/m 0,0 km/h (0 Bft) SW 215 0 min 0,000 mm 0,0 UV-I 0 W/m 4,1 C 7,0 C 0,0 km/h (0 Bft) 0,00 %
24.10.2014 00:30 7,2 C 83 % 1021,1 hPa 0,0 l/m 0,0 km/h (0 Bft) W 259 0 min 0,000 mm 0,0 UV-I 0 W/m 4,5 C 7,2 C 0,0 km/h (0 Bft) 0,00 %
24.10.2014 00:45 7,3 C 82 % 1021,0 hPa 0,0 l/m 0,0 km/h (0 Bft) W-NW 287 0 min 0,000 mm 0,0 UV-I 0 W/m 4,4 C 7,3 C 0,0 km/h (0 Bft) 0,00 %
24.10.2014 01:00 7,3 C 82 % 1021,0 hPa 0,0 l/m 2,2 km/h (1 Bft) W-SW 251 0 min 0,000 mm 0,0 UV-I 0 W/m 4,4 C 7,3 C 4,0 km/h (1 Bft) 0,00 %
24.10.2014 01:15 7,2 C 82 % 1020,8 hPa 0,0 l/m 0,4 km/h (0 Bft) W 273 0 min 0,000 mm 0,0 UV-I 0 W/m 4,3 C 7,2 C 4,0 km/h (1 Bft) 0,00 %
24.10.2014 01:30 7,2 C 82 % 1021,0 hPa 0,0 l/m 0,4 km/h (0 Bft) W-SW 256 0 min 0,000 mm 0,0 UV-I 0 W/m 4,3 C 7,2 C 4,0 km/h (1 Bft) 0,00 %
24.10.2014 01:45 7,2 C 83 % 1020,8 hPa 0,0 l/m 0,0 km/h (0 Bft) NW 313 0 min 0,000 mm 0,0 UV-I 0 W/m 4,5 C 7,2 C 0,0 km/h (0 Bft) 0,00 %
24.10.2014 02:00 7,2 C 83 % 1021,0 hPa 0,0 l/m 2,9 km/h (1 Bft) W-SW 253 0 min 0,000 mm 0,0 UV-I 0 W/m 4,5 C 7,2 C 4,0 km/h (1 Bft) 0,00 %
24.10.2014 02:15 7,3 C 83 % 1021,0 hPa 0,0 l/m 0,0 km/h (0 Bft) SO 131 0 min 0,000 mm 0,0 UV-I 0 W/m 4,6 C 7,3 C 0,0 km/h (0 Bft) 0,00 %
24.10.2014 02:30 7,3 C 82 % 1021,2 hPa 0,0 l/m 0,0 km/h (0 Bft) S 180 0 min 0,000 mm 0,0 UV-I 0 W/m 4,4 C 7,3 C 0,0 km/h (0 Bft) 0,00 %
24.10.2014 02:45 7,3 C 83 % 1021,1 hPa 0,0 l/m 0,7 km/h (0 Bft) W 267 0 min 0,000 mm 0,0 UV-I 0 W/m 4,6 C 7,3 C 4,0 km/h (1 Bft) 0,00 %
24.10.2014 03:00 7,2 C 83 % 1021,1 hPa 0,0 l/m 0,4 km/h (0 Bft) S 183 0 min 0,000 mm 0,0 UV-I 0 W/m 4,5 C 7,2 C 4,0 km/h (1 Bft) 0,00 %
24.10.2014 03:15 7,1 C 83 % 1021,0 hPa 0,0 l/m 0,7 km/h (0 Bft) W-SW 251 0 min 0,000 mm 0,0 UV-I 0 W/m 4,4 C 7,1 C 4,0 km/h (1 Bft) 0,00 %
24.10.2014 03:30 7,0 C 82 % 1021,0 hPa 0,0 l/m 0,4 km/h (0 Bft) S-SO 155 0 min 0,000 mm 0,0 UV-I 0 W/m 4,1 C 7,0 C 4,0 km/h (1 Bft) 0,00 %
24.10.2014 03:45 6,9 C 82 % 1021,0 hPa 0,0 l/m 0,0 km/h (0 Bft) SW 223 0 min 0,000 mm 0,0 UV-I 0 W/m 4,0 C 6,9 C 0,0 km/h (0 Bft) 0,00 %
24.10.2014 04:00 6,9 C 83 % 1020,9 hPa 0,0 l/m 0,0 km/h (0 Bft) W-SW 251 0 min 0,000 mm 0,0 UV-I 0 W/m 4,2 C 6,9 C 0,0 km/h (0 Bft) 0,00 %
24.10.2014 04:15 6,9 C 82 % 1020,7 hPa 0,0 l/m 0,7 km/h (0 Bft) W-SW 255 0 min 0,000 mm 0,0 UV-I 0 W/m 4,0 C 6,9 C 4,0 km/h (1 Bft) 0,00 %
24.10.2014 04:30 6,9 C 82 % 1020,8 hPa 0,0 l/m 0,0 km/h (0 Bft) O-SO 105 0 min 0,000 mm 0,0 UV-I 0 W/m 4,0 C 6,9 C 0,0 km/h (0 Bft) 0,00 %
24.10.2014 04:45 6,9 C 82 % 1020,7 hPa 0,0 l/m 0,0 km/h (0 Bft) SW 224 0 min 0,000 mm 0,0 UV-I 0 W/m 4,0 C 6,9 C 0,0 km/h (0 Bft) 0,00 %
24.10.2014 05:00 6,8 C 82 % 1020,8 hPa 0,0 l/m 0,0 km/h (0 Bft) SW 216 0 min 0,000 mm 0,0 UV-I 0 W/m 3,9 C 6,8 C 0,0 km/h (0 Bft) 0,00 %
24.10.2014 05:15 6,9 C 82 % 1020,7 hPa 0,0 l/m 5,8 km/h (2 Bft) S-SW 208 0 min 0,000 mm 0,0 UV-I 0 W/m 4,0 C 6,9 C 7,9 km/h (2 Bft) 0,00 %
24.10.2014 05:30 6,9 C 82 % 1020,7 hPa 0,0 l/m 0,0 km/h (0 Bft) O-SO 104 0 min 0,000 mm 0,0 UV-I 0 W/m 4,0 C 6,9 C 0,0 km/h (0 Bft) 0,00 %
24.10.2014 05:45 6,8 C 82 % 1020,9 hPa 0,0 l/m 0,7 km/h (0 Bft) N-NW 347 0 min 0,000 mm 0,0 UV-I 0 W/m 3,9 C 6,8 C 4,0 km/h (1 Bft) 0,00 %
24.10.2014 06:00 6,8 C 82 % 1021,3 hPa 0,0 l/m 1,8 km/h (1 Bft) N-NW 348 0 min 0,000 mm 0,0 UV-I 0 W/m 3,9 C 6,8 C 4,0 km/h (1 Bft) 0,00 %
24.10.2014 06:15 6,8 C 82 % 1021,3 hPa 0,0 l/m 0,4 km/h (0 Bft) W-NW 289 0 min 0,000 mm 0,0 UV-I 0 W/m 3,9 C 6,8 C 4,0 km/h (1 Bft) 0,00 %
24.10.2014 06:30 6,7 C 82 % 1021,3 hPa 0,0 l/m 0,7 km/h (0 Bft) W-SW 255 0 min 0,000 mm 0,0 UV-I 0 W/m 3,8 C 6,7 C 4,0 km/h (1 Bft) 0,00 %
24.10.2014 06:45 6,7 C 82 % 1021,4 hPa 0,0 l/m 0,0 km/h (0 Bft) W-SW 253 0 min 0,000 mm 0,0 UV-I 0 W/m 3,8 C 6,7 C 0,0 km/h (0 Bft) 0,00 %
24.10.2014 07:00 6,7 C 83 % 1021,3 hPa 0,3 l/m 4,3 km/h (1 Bft) W 276 0 min 0,000 mm 0,0 UV-I 0 W/m 4,0 C 6,7 C 7,9 km/h (2 Bft) 0,00 %
24.10.2014 07:15 6,7 C 83 % 1021,4 hPa 0,3 l/m 2,2 km/h (1 Bft) SW 217 0 min 0,000 mm 0,0 UV-I 0 W/m 4,0 C 6,7 C 4,0 km/h (1 Bft) 0,00 %
24.10.2014 07:30 6,7 C 84 % 1021,6 hPa 0,3 l/m 1,8 km/h (1 Bft) W-SW 255 0 min 0,000 mm 0,0 UV-I 0 W/m 4,2 C 6,7 C 4,0 km/h (1 Bft) 0,00 %
24.10.2014 07:45 6,7 C 84 % 1021,8 hPa 0,0 l/m 0,0 km/h (0 Bft) W-NW 285 0 min 0,000 mm 0,0 UV-I 0 W/m 4,2 C 6,7 C 0,0 km/h (0 Bft) 0,00 %
24.10.2014 08:00 6,7 C 84 % 1021,9 hPa 0,0 l/m 0,0 km/h (0 Bft) SW 228 0 min 0,000 mm 0,0 UV-I 0 W/m 4,2 C 6,7 C 0,0 km/h (0 Bft) 0,00 %
24.10.2014 08:15 6,7 C 85 % 1021,9 hPa 0,0 l/m 0,0 km/h (0 Bft) W-SW 252 0 min 0,000 mm 0,0 UV-I 0 W/m 4,4 C 6,7 C 0,0 km/h (0 Bft) 0,00 %
24.10.2014 08:30 6,8 C 85 % 1022,3 hPa 0,0 l/m 0,0 km/h (0 Bft) W-SW 255 0 min 0,000 mm 0,0 UV-I 0 W/m 4,5 C 6,8 C 0,0 km/h (0 Bft) 0,00 %
24.10.2014 08:45 6,9 C 85 % 1022,2 hPa 0,0 l/m 0,0 km/h (0 Bft) W-SW 253 0 min 0,000 mm 0,0 UV-I 0 W/m 4,6 C 6,9 C 0,0 km/h (0 Bft) 0,00 %
24.10.2014 09:00 7,0 C 85 % 1022,3 hPa 0,0 l/m 0,0 km/h (0 Bft) O 95 0 min 0,000 mm 0,0 UV-I 0 W/m 4,7 C 7,0 C 0,0 km/h (0 Bft) 0,00 %
24.10.2014 09:15 7,0 C 85 % 1022,2 hPa 0,0 l/m 0,0 km/h (0 Bft) S 190 0 min 0,000 mm 0,0 UV-I 0 W/m 4,7 C 7,0 C 0,0 km/h (0 Bft) 0,00 %
24.10.2014 09:30 7,1 C 85 % 1022,4 hPa 0,0 l/m 0,0 km/h (0 Bft) SW 230 0 min 0,000 mm 0,0 UV-I 37 W/m 4,8 C 7,1 C 0,0 km/h (0 Bft) 0,00 %
24.10.2014 09:45 7,1 C 85 % 1022,1 hPa 0,0 l/m 0,0 km/h (0 Bft) W-SW 255 0 min 0,000 mm 0,0 UV-I 58 W/m 4,8 C 7,1 C 0,0 km/h (0 Bft) 0,00 %
24.10.2014 10:00 7,2 C 85 % 1022,5 hPa 0,0 l/m 1,8 km/h (1 Bft) W-SW 256 0 min 0,000 mm 0,0 UV-I 92 W/m 4,9 C 7,2 C 4,0 km/h (1 Bft) 0,00 %
24.10.2014 10:15 7,3 C 85 % 1022,4 hPa 0,0 l/m 0,0 km/h (0 Bft) W-SW 251 0 min 0,000 mm 0,0 UV-I 88 W/m 4,9 C 7,3 C 0,0 km/h (0 Bft) 0,00 %
24.10.2014 10:30 7,4 C 84 % 1022,4 hPa 0,0 l/m 0,0 km/h (0 Bft) SW 230 0 min 0,000 mm 1,0 UV-I 125 W/m 4,9 C 7,4 C 0,0 km/h (0 Bft) 0,00 %
24.10.2014 10:45 7,5 C 84 % 1022,6 hPa 0,0 l/m 0,0 km/h (0 Bft) W-SW 251 0 min 0,000 mm 1,0 UV-I 116 W/m 5,0 C 7,5 C 0,0 km/h (0 Bft) 0,00 %
24.10.2014 11:00 7,6 C 84 % 1022,7 hPa 0,0 l/m 0,0 km/h (0 Bft) S-SW 209 0 min 0,000 mm 1,0 UV-I 169 W/m 5,1 C 7,6 C 0,0 km/h (0 Bft) 0,00 %
24.10.2014 11:15 7,7 C 84 % 1022,6 hPa 0,0 l/m 0,0 km/h (0 Bft) W 277 0 min 0,000 mm 1,0 UV-I 132 W/m 5,2 C 7,7 C 0,0 km/h (0 Bft) 0,00 %
24.10.2014 11:30 7,7 C 84 % 1022,7 hPa 0,0 l/m 0,7 km/h (0 Bft) W-SW 240 0 min 0,000 mm 1,0 UV-I 208 W/m 5,2 C 7,7 C 4,0 km/h (1 Bft) 0,00 %
24.10.2014 11:45 7,9 C 83 % 1022,4 hPa 0,0 l/m 0,0 km/h (0 Bft) O-SO 120 0 min 0,000 mm 1,0 UV-I 265 W/m 5,2 C 7,9 C 0,0 km/h (0 Bft) 0,00 %
24.10.2014 12:00 8,0 C 83 % 1022,5 hPa 0,0 l/m 0,0 km/h (0 Bft) S-SW 206 15 min 0,000 mm 1,0 UV-I 322 W/m 5,3 C 8,0 C 0,0 km/h (0 Bft) 0,00 %
24.10.2014 12:15 8,2 C 83 % 1022,4 hPa 0,0 l/m 0,0 km/h (0 Bft) W-SW 252 15 min 0,000 mm 1,0 UV-I 324 W/m 5,5 C 8,2 C 0,0 km/h (0 Bft) 0,00 %
24.10.2014 12:30 8,4 C 82 % 1022,2 hPa 0,0 l/m 0,0 km/h (0 Bft) S-SW 203 15 min 0,000 mm 1,0 UV-I 300 W/m 5,5 C 8,4 C 0,0 km/h (0 Bft) 0,00 %
24.10.2014 12:45 8,4 C 82 % 1022,0 hPa 0,0 l/m 0,0 km/h (0 Bft) SW 215 0 min 0,000 mm 1,0 UV-I 246 W/m 5,5 C 8,4 C 0,0 km/h (0 Bft) 0,00 %
24.10.2014 13:00 8,5 C 81 % 1022,0 hPa 0,0 l/m 0,0 km/h (0 Bft) W-NW 295 15 min 0,000 mm 1,0 UV-I 300 W/m 5,4 C 8,5 C 0,0 km/h (0 Bft) 0,00 %
24.10.2014 13:15 8,5 C 81 % 1021,9 hPa 0,0 l/m 0,4 km/h (0 Bft) W-SW 252 0 min 0,000 mm 1,0 UV-I 199 W/m 5,4 C 8,5 C 4,0 km/h (1 Bft) 0,00 %
24.10.2014 13:30 8,5 C 81 % 1021,8 hPa 0,0 l/m 0,0 km/h (0 Bft) W-SW 256 0 min 0,000 mm 1,0 UV-I 241 W/m 5,4 C 8,5 C 0,0 km/h (0 Bft) 0,00 %
24.10.2014 13:45 8,5 C 82 % 1021,6 hPa 0,0 l/m 0,4 km/h (0 Bft) W-SW 253 0 min 0,000 mm 1,0 UV-I 174 W/m 5,6 C 8,5 C 4,0 km/h (1 Bft) 0,00 %
24.10.2014 14:00 8,3 C 82 % 1021,6 hPa 0,0 l/m 0,0 km/h (0 Bft) S-SW 199 0 min 0,000 mm 1,0 UV-I 163 W/m 5,4 C 8,3 C 0,0 km/h (0 Bft) 0,00 %
24.10.2014 14:15 8,4 C 82 % 1021,4 hPa 0,0 l/m 0,0 km/h (0 Bft) SW 219 0 min 0,000 mm 1,0 UV-I 146 W/m 5,5 C 8,4 C 0,0 km/h (0 Bft) 0,00 %
24.10.2014 14:30 8,3 C 82 % 1021,5 hPa 0,0 l/m 0,4 km/h (0 Bft) SO 129 0 min 0,000 mm 1,0 UV-I 118 W/m 5,4 C 8,3 C 4,0 km/h (1 Bft) 0,00 %
24.10.2014 14:45 8,2 C 82 % 1021,3 hPa 0,0 l/m 0,0 km/h (0 Bft) S-SW 210 0 min 0,000 mm 0,0 UV-I 90 W/m 5,3 C 8,2 C 0,0 km/h (0 Bft) 0,00 %
24.10.2014 15:00 8,2 C 83 % 1021,3 hPa 0,0 l/m 0,0 km/h (0 Bft) S-SW 192 0 min 0,000 mm 0,0 UV-I 66 W/m 5,5 C 8,2 C 0,0 km/h (0 Bft) 0,00 %
24.10.2014 15:15 8,2 C 82 % 1021,0 hPa 0,0 l/m 0,0 km/h (0 Bft) SO 130 0 min 0,000 mm 1,0 UV-I 103 W/m 5,3 C 8,2 C 0,0 km/h (0 Bft) 0,00 %
24.10.2014 15:30 8,2 C 83 % 1020,9 hPa 0,0 l/m 0,0 km/h (0 Bft) W-NW 288 0 min 0,000 mm 1,0 UV-I 124 W/m 5,5 C 8,2 C 0,0 km/h (0 Bft) 0,00 %
24.10.2014 15:45 8,3 C 82 % 1020,8 hPa 0,0 l/m 0,0 km/h (0 Bft) S 173 15 min 0,000 mm 1,0 UV-I 177 W/m 5,4 C 8,3 C 0,0 km/h (0 Bft) 0,00 %
24.10.2014 16:00 8,4 C 82 % 1020,6 hPa 0,0 l/m 0,0 km/h (0 Bft) S 182 0 min 0,000 mm 0,0 UV-I 85 W/m 5,5 C 8,4 C 0,0 km/h (0 Bft) 0,00 %
24.10.2014 16:15 8,4 C 81 % 1020,7 hPa 0,0 l/m 0,0 km/h (0 Bft) S-SW 205 15 min 0,000 mm 1,0 UV-I 143 W/m 5,3 C 8,4 C 0,0 km/h (0 Bft) 0,00 %
24.10.2014 16:30 8,7 C 81 % 1020,5 hPa 0,0 l/m 0,0 km/h (0 Bft) S-SW 205 15 min 0,000 mm 1,0 UV-I 174 W/m 5,6 C 8,7 C 0,0 km/h (0 Bft) 0,00 %
24.10.2014 16:45 8,7 C 80 % 1020,6 hPa 0,0 l/m 0,0 km/h (0 Bft) S-SW 203 15 min 0,000 mm 1,0 UV-I 146 W/m 5,4 C 8,7 C 0,0 km/h (0 Bft) 0,00 %
24.10.2014 17:00 8,5 C 81 % 1020,6 hPa 0,0 l/m 0,0 km/h (0 Bft) SW 223 15 min 0,000 mm 0,0 UV-I 85 W/m 5,4 C 8,5 C 0,0 km/h (0 Bft) 0,00 %
24.10.2014 17:15 8,1 C 82 % 1020,5 hPa 0,0 l/m 0,0 km/h (0 Bft) S-SW 193 0 min 0,000 mm 0,0 UV-I 34 W/m 5,2 C 8,1 C 0,0 km/h (0 Bft) 0,00 %
24.10.2014 17:30 7,7 C 83 % 1020,7 hPa 0,0 l/m 0,0 km/h (0 Bft) SW 223 0 min 0,000 mm 0,0 UV-I 0 W/m 5,0 C 7,7 C 0,0 km/h (0 Bft) 0,00 %
24.10.2014 17:45 7,5 C 83 % 1020,7 hPa 0,0 l/m 0,0 km/h (0 Bft) S 176 0 min 0,000 mm 0,0 UV-I 0 W/m 4,8 C 7,5 C 0,0 km/h (0 Bft) 0,00 %
24.10.2014 18:00 7,4 C 83 % 1020,7 hPa 0,0 l/m 0,0 km/h (0 Bft) S 191 0 min 0,000 mm 0,0 UV-I 0 W/m 4,7 C 7,4 C 0,0 km/h (0 Bft) 0,00 %
24.10.2014 18:15 7,3 C 84 % 1021,0 hPa 0,0 l/m 0,0 km/h (0 Bft) S 191 0 min 0,000 mm 0,0 UV-I 0 W/m 4,8 C 7,3 C 0,0 km/h (0 Bft) 0,00 %
24.10.2014 18:30 7,3 C 84 % 1020,9 hPa 0,0 l/m 0,0 km/h (0 Bft) SW 224 0 min 0,000 mm 0,0 UV-I 0 W/m 4,8 C 7,3 C 0,0 km/h (0 Bft) 0,00 %
24.10.2014 18:45 7,3 C 84 % 1020,9 hPa 0,0 l/m 0,0 km/h (0 Bft) S 179 0 min 0,000 mm 0,0 UV-I 0 W/m 4,8 C 7,3 C 0,0 km/h (0 Bft) 0,00 %
24.10.2014 19:00 7,3 C 84 % 1020,9 hPa 0,0 l/m 0,0 km/h (0 Bft) SW 232 0 min 0,000 mm 0,0 UV-I 0 W/m 4,8 C 7,3 C 0,0 km/h (0 Bft) 0,00 %
24.10.2014 19:15 7,2 C 84 % 1021,2 hPa 0,0 l/m 0,0 km/h (0 Bft) SW 227 0 min 0,000 mm 0,0 UV-I 0 W/m 4,7 C 7,2 C 0,0 km/h (0 Bft) 0,00 %
24.10.2014 19:30 7,2 C 84 % 1021,0 hPa 0,0 l/m 0,0 km/h (0 Bft) SW 216 0 min 0,000 mm 0,0 UV-I 0 W/m 4,7 C 7,2 C 0,0 km/h (0 Bft) 0,00 %
24.10.2014 19:45 7,2 C 85 % 1021,0 hPa 0,0 l/m 0,0 km/h (0 Bft) S 187 0 min 0,000 mm 0,0 UV-I 0 W/m 4,9 C 7,2 C 0,0 km/h (0 Bft) 0,00 %
24.10.2014 20:00 7,1 C 85 % 1021,1 hPa 0,0 l/m 0,0 km/h (0 Bft) S-SW 202 0 min 0,000 mm 0,0 UV-I 0 W/m 4,8 C 7,1 C 0,0 km/h (0 Bft) 0,00 %
24.10.2014 20:15 6,9 C 84 % 1021,0 hPa 0,0 l/m 0,0 km/h (0 Bft) S-SW 208 0 min 0,000 mm 0,0 UV-I 0 W/m 4,4 C 6,9 C 0,0 km/h (0 Bft) 0,00 %
24.10.2014 20:30 6,6 C 85 % 1021,2 hPa 0,0 l/m 0,0 km/h (0 Bft) S 191 0 min 0,000 mm 0,0 UV-I 0 W/m 4,3 C 6,6 C 0,0 km/h (0 Bft) 0,00 %
24.10.2014 20:45 6,2 C 85 % 1021,4 hPa 0,0 l/m 0,0 km/h (0 Bft) S 187 0 min 0,000 mm 0,0 UV-I 0 W/m 3,9 C 6,2 C 0,0 km/h (0 Bft) 0,00 %
24.10.2014 21:00 6,1 C 85 % 1021,4 hPa 0,0 l/m 0,0 km/h (0 Bft) S-SW 193 0 min 0,000 mm 0,0 UV-I 0 W/m 3,8 C 6,1 C 0,0 km/h (0 Bft) 0,00 %
24.10.2014 21:15 6,4 C 85 % 1021,5 hPa 0,0 l/m 0,0 km/h (0 Bft) S 172 0 min 0,000 mm 0,0 UV-I 0 W/m 4,1 C 6,4 C 0,0 km/h (0 Bft) 0,00 %
24.10.2014 21:30 6,6 C 85 % 1021,5 hPa 0,0 l/m 0,0 km/h (0 Bft) SW 232 0 min 0,000 mm 0,0 UV-I 0 W/m 4,3 C 6,6 C 0,0 km/h (0 Bft) 0,00 %
24.10.2014 21:45 6,7 C 85 % 1021,4 hPa 0,0 l/m 0,0 km/h (0 Bft) SO 145 0 min 0,000 mm 0,0 UV-I 0 W/m 4,4 C 6,7 C 0,0 km/h (0 Bft) 0,00 %
24.10.2014 22:00 6,7 C 85 % 1021,4 hPa 0,0 l/m 0,0 km/h (0 Bft) S-SO 159 0 min 0,000 mm 0,0 UV-I 0 W/m 4,4 C 6,7 C 0,0 km/h (0 Bft) 0,00 %
24.10.2014 22:15 6,7 C 85 % 1021,3 hPa 0,0 l/m 0,0 km/h (0 Bft) S-SO 159 0 min 0,000 mm 0,0 UV-I 0 W/m 4,4 C 6,7 C 0,0 km/h (0 Bft) 0,00 %
24.10.2014 22:30 6,7 C 85 % 1021,5 hPa 0,0 l/m 0,0 km/h (0 Bft) S-SW 209 0 min 0,000 mm 0,0 UV-I 0 W/m 4,4 C 6,7 C 0,0 km/h (0 Bft) 0,00 %
24.10.2014 22:45 6,7 C 85 % 1021,4 hPa 0,0 l/m 0,0 km/h (0 Bft) S-SW 199 0 min 0,000 mm 0,0 UV-I 0 W/m 4,4 C 6,7 C 0,0 km/h (0 Bft) 0,00 %
24.10.2014 23:00 6,7 C 85 % 1021,3 hPa 0,0 l/m 0,0 km/h (0 Bft) S 175 0 min 0,000 mm 0,0 UV-I 0 W/m 4,4 C 6,7 C 0,0 km/h (0 Bft) 0,00 %
24.10.2014 23:15 6,7 C 85 % 1021,5 hPa 0,0 l/m 0,0 km/h (0 Bft) S-SW 204 0 min 0,000 mm 0,0 UV-I 0 W/m 4,4 C 6,7 C 0,0 km/h (0 Bft) 0,00 %
24.10.2014 23:30 6,7 C 85 % 1021,2 hPa 0,0 l/m 0,0 km/h (0 Bft) S-SW 208 0 min 0,000 mm 0,0 UV-I 0 W/m 4,4 C 6,7 C 0,0 km/h (0 Bft) 0,00 %
_ Min-Zeit 21:00 16:45 16:30 - 00:15 - - - - - - 21:00 21:00 00:15 00:00
Minimum _ 6,1 C 80 % 1020,5 hPa - 0,0 km/h (0 Bft) - - - - - - 3,8 C 6,1 C 0,0 km/h (0 Bft) 0,00 %
_ Max-Zeit 16:30 08:15 11:00 07:00 05:15 - - 12:00 00:00 10:30 12:15 16:30 16:30 05:15 00:00
Maximum _ 8,7 C 85 % 1022,7 hPa 0,3 l/m 5,8 km/h
S-SW (2 Bft)
- - 15 min 0,000 mm 1,0 UV-I 324 W/m 5,6 C 8,7 C 7,9 km/h
S-SW (2 Bft)
0,00 %
Durchschnitt _ 7,3 C 83 % 1021,4 hPa #0,9 l/m 0,3 km/h (0 Bft) W-SW - #2:15 h #0,000 mm 1,0 UV-I 158 W/m 4,7 C 7,3 C 1,0 km/h (0 Bft) 0,00 %